User: anonymous   Login
Location: Cluj-Napoca
(46.7712°N, 23.6236°E)
Time: 00:41:15
(UTC+03:00)
Language:

N. Korean satellite - Orbit

View from above orbital plane
View from above orbital plane
View from above satellite
View from above satellite

Ground track
Ground track

The orbit data is extracted from the following two-line orbital elements,

1 39026U 12072A   21296.55696310  .00004215  00000-0  14045-3 0  9996
2 39026  97.2545 286.4362 0032786 288.5491  71.2190 15.31136681492682
Epoch (UTC): 23 October 2021 13:22:01
Eccentricity: 0.0032786
inclination: 97.2545°
perigee height: 450 km
apogee height: 495 km
right ascension of ascending node: 286.4362°
argument of perigee: 288.5491°
revolutions per day: 15.31136681
mean anomaly at epoch: 71.2190°
orbit number at epoch: 49268

The dashed part of the orbit path shows where the satellite is in the earth's shadow,  

DLR